FW9412 Weather Reports


Display with metric or nautical units.
time (UTC)temp
F
wind
direction
speed
MPH
gust
MPH
rain 1hr
in
rain 24hr
in
rain mn
in
humidity
%
barometer
mb
20260902170847 71 147 0.0 0.0 0.00 1.31 1.31 99 1015.6
20260902170342 71 122 1.0 2.0 0.00 1.31 1.31 99 1015.8
20260902165837 71 167 1.0 2.0 0.00 1.31 1.31 99 1015.9
20260902165336 71 119 1.0 1.0 0.00 1.31 1.31 99 1016.2
20260902164831 71 151 0.0 0.0 0.00 1.31 1.31 99 1016.0
20260902164326 71 171 1.0 1.0 0.00 1.31 1.31 99 1015.7
20260902163825 71 152 1.0 2.0 0.00 1.31 1.31 99 1015.7
20260902163325 71 158 0.0 0.0 0.00 1.31 1.31 99 1015.9
20260902162824 70 157 0.0 0.0 0.00 1.31 1.31 99 1015.9
20260902162319 69 149 0.0 0.0 0.00 1.31 1.31 99 1016.3
20260902161814 69 150 0.0 0.0 0.00 1.31 1.31 99 1016.4
20260902161309 69 150 0.0 0.0 0.00 1.31 1.31 99 1016.4
20260902160805 68 143 1.0 1.0 0.00 1.31 1.31 99 1016.5
20260902160301 68 146 0.0 1.0 0.00 1.31 1.31 99 1016.6
20260902155758 68 142 1.0 1.0 0.00 1.31 1.31 99 1016.7
20260902155257 68 154 1.0 2.0 0.00 1.31 1.31 99 1016.6
20260902154752 67 146 1.0 1.0 0.00 1.31 1.31 99 1016.8
20260902154248 67 151 0.0 1.0 0.00 1.31 1.31 99 1016.7
20260902153747 66 147 0.0 0.0 0.07 1.31 1.31 99 1016.9
20260902153242 66 154 0.0 0.0 0.07 1.31 1.31 99 1016.9
20260902152737 66 146 0.0 1.0 0.05 1.30 1.30 99 1017.2
20260902152233 66 155 1.0 2.0 0.17 1.30 1.30 99 1017.6
20260902151728 66 148 0.0 0.0 0.24 1.29 1.29 99 1017.9
20260902151228 66 143 0.0 0.0 0.42 1.27 1.27 99 1018.9
20260902150723 66 150 0.0 0.0 0.42 1.25 1.25 99 1018.9
20260902150219 66 148 0.0 0.0 0.31 1.20 1.20 99 1019.0
20260902145718 66 162 0.0 0.0 0.42 1.18 1.18 99 1019.3
20260902145213 66 152 0.0 0.0 0.66 1.15 1.15 99 1018.8
20260902144709 67 138 0.0 0.0 2.53 1.10 1.10 99 1019.1
20260902144205 67 144 0.0 0.0 3.35 1.03 1.03 99 1019.1
20260902143700 68 132 0.0 0.0 1.79 0.69 0.69 99 1018.9
20260902143155 68 134 2.0 2.0 0.97 0.46 0.46 99 1018.4
20260902142651 68 145 0.0 0.0 0.61 0.38 0.38 99 1017.4
20260902142146 68 156 0.0 0.0 0.17 0.30 0.30 99 1017.3
20260902141645 68 148 0.0 0.0 0.12 0.28 0.28 99 1017.2
20260902141141 68 149 0.0 0.0 0.24 0.27 0.27 99 1017.1
20260902140637 68 148 0.0 0.0 0.31 0.26 0.26 99 1016.9
20260902140132 68 148 0.0 0.0 0.26 0.23 0.23 99 1016.7
20260902135631 68 109 1.0 2.0 0.17 0.21 0.21 99 1017.4
20260902135127 68 151 0.0 0.0 0.12 0.19 0.19 99 1017.0
20260902134622 68 142 0.0 0.0 0.24 0.18 0.18 99 1017.1
20260902134121 68 144 0.0 0.0 0.40 0.17 0.17 99 1017.2
20260902133621 68 147 0.0 0.0 0.59 0.15 0.15 99 1017.6
20260902133116 69 163 0.0 0.0 0.61 0.10 0.10 99 1017.3
20260902132611 69 178 0.0 0.0 0.19 0.03 0.03 99 1017.4
20260902132107 69 148 0.0 0.0 0.00 0.00 0.00 99 1017.3
20260902131603 69 152 0.0 0.0 0.00 0.00 0.00 99 1017.2
20260902131058 69 148 0.0 0.0 0.00 0.00 0.00 99 1017.2
20260902130554 69 148 0.0 0.0 0.00 0.00 0.00 99 1017.0
20260902130048 69 152 0.0 0.0 0.00 0.00 0.00 99 1016.7
20260902125545 69 150 0.0 0.0 0.00 0.00 0.00 99 1016.8
20260902125040 69 152 0.0 0.0 0.00 0.00 0.00 99 1016.9
20260902124537 69 150 0.0 0.0 0.00 0.00 0.00 99 1016.8
20260902124036 69 153 0.0 0.0 0.00 0.00 0.00 99 1016.6
20260902123532 69 148 0.0 0.0 0.00 0.00 0.00 99 1016.4
20260902123032 69 149 0.0 0.0 0.00 0.00 0.00 99 1016.4
20260902122532 69 151 0.0 0.0 0.00 0.00 0.00 99 1016.5
20260902122028 69 150 0.0 0.0 0.00 0.00 0.00 99 1016.5
20260902121528 68 148 0.0 0.0 0.00 0.00 0.00 99 1016.6
20260902121023 68 156 0.0 0.0 0.00 0.00 0.00 99 1016.5
20260902120519 68 144 0.0 0.0 0.00 0.00 0.00 99 1016.4
20260902120015 68 150 0.0 0.0 0.00 0.00 0.00 99 1016.2
20260902115510 68 147 0.0 0.0 0.00 0.00 0.00 99 1016.1
20260902115007 68 149 0.0 0.0 0.00 0.00 0.00 99 1015.8
20260902114502 68 147 0.0 0.0 0.00 0.00 0.00 99 1015.8
20260902113956 68 146 0.0 0.0 0.00 0.00 0.00 99 1016.0
20260902113452 68 148 0.0 0.0 0.00 0.00 0.00 99 1016.0
20260902112951 68 148 0.0 0.0 0.00 0.00 0.00 99 1016.0
20260902112448 68 147 0.0 0.0 0.00 0.00 0.00 99 1016.0
20260902111944 68 148 0.0 0.0 0.00 0.00 0.00 99 1015.8
20260902111440 67 148 0.0 0.0 0.00 0.00 0.00 99 1015.9
20260902110936 67 148 0.0 0.0 0.00 0.00 0.00 99 1015.9
20260902110431 67 148 0.0 0.0 0.00 0.00 0.00 99 1016.1
20260902105932 67 145 0.0 0.0 0.00 0.00 0.00 99 1015.9
20260902105427 67 148 0.0 0.0 0.00 0.00 0.00 99 1015.8
20260902104921 67 152 0.0 0.0 0.00 0.00 0.00 99 1015.8
20260902104417 67 148 0.0 0.0 0.00 0.00 0.00 99 1015.7
20260902103917 67 149 0.0 0.0 0.00 0.00 0.00 99 1015.6
20260902103412 67 148 0.0 0.0 0.00 0.00 0.00 99 1015.9
20260902102907 67 148 0.0 0.0 0.00 0.00 0.00 99 1016.0
20260902102405 67 148 0.0 0.0 0.00 0.00 0.00 99 1015.9
20260902101900 67 148 0.0 0.0 0.00 0.00 0.00 99 1016.3
20260902101355 67 148 0.0 0.0 0.00 0.00 0.00 99 1016.1
20260902100854 67 148 0.0 0.0 0.00 0.00 0.00 99 1016.4
20260902100348 67 147 0.0 0.0 0.00 0.00 0.00 99 1016.2
20260902095843 67 146 0.0 0.0 0.00 0.00 0.00 99 1016.1
20260902095342 67 148 0.0 0.0 0.00 0.00 0.00 99 1016.3
20260902094837 67 148 0.0 0.0 0.00 0.00 0.00 99 1016.6
20260902094333 67 147 0.0 0.0 0.00 0.00 0.00 99 1016.5
20260902093832 67 148 0.0 0.0 0.00 0.00 0.00 99 1016.3
20260902093328 67 149 0.0 0.0 0.00 0.00 0.00 99 1016.4
20260902092827 67 147 0.0 0.0 0.00 0.00 0.00 99 1016.5
20260902092323 67 149 0.0 0.0 0.00 0.00 0.00 99 1016.4
20260902091817 67 149 0.0 0.0 0.00 0.00 0.00 99 1016.2
20260902091312 67 147 0.0 0.0 0.00 0.00 0.00 99 1016.1
20260902090809 67 148 0.0 0.0 0.00 0.00 0.00 99 1016.3
20260902090308 67 149 0.0 0.0 0.00 0.00 0.00 99 1016.5
20260902085807 67 149 0.0 0.0 0.00 0.00 0.00 99 1016.4
20260902085306 67 147 0.0 0.0 0.00 0.00 0.00 99 1016.5
20260902084758 67 148 0.0 0.0 0.00 0.00 0.00 99 1016.7
20260902084255 68 147 0.0 0.0 0.00 0.00 0.00 99 1016.5
20260902083749 68 148 0.0 0.0 0.00 0.00 0.00 99 1016.5
20260902083244 68 150 0.0 0.0 0.00 0.00 0.00 99 1016.7
20260902082739 68 150 0.0 0.0 0.00 0.00 0.00 99 1016.8
20260902082236 68 153 0.0 0.0 0.00 0.00 0.00 99 1016.6
20260902081732 68 153 0.0 0.0 0.00 0.00 0.00 99 1016.8
20260902081227 68 152 0.0 0.0 0.00 0.00 0.00 99 1016.6
20260902080722 68 150 0.0 0.0 0.00 0.00 0.00 99 1016.4
20260902080219 68 150 0.0 0.0 0.00 0.00 0.00 99 1016.8
20260902075718 68 149 0.0 0.0 0.00 0.00 0.00 99 1016.5
20260902075215 68 150 0.0 0.0 0.00 0.00 0.00 99 1016.5
20260902074714 68 148 0.0 0.0 0.00 0.00 0.00 99 1016.5
20260902074209 68 149 0.0 0.0 0.00 0.00 0.00 99 1016.4
20260902073705 68 149 0.0 0.0 0.00 0.00 0.00 99 1016.5
20260902073201 68 152 0.0 0.0 0.00 0.00 0.00 99 1016.5
20260902072657 68 149 0.0 0.0 0.00 0.00 0.00 99 1016.5
20260902072152 68 149 0.0 0.0 0.00 0.00 0.00 99 1016.5
20260902071648 68 148 0.0 0.0 0.00 0.00 0.00 99 1016.6
20260902071144 68 149 0.0 0.0 0.00 0.00 0.00 99 1016.5
20260902070639 68 149 0.0 0.0 0.00 0.00 0.00 99 1016.4
20260902070139 68 150 0.0 0.0 0.00 0.00 0.00 99 1016.2
20260902065638 68 156 0.0 0.0 0.00 0.00 0.00 99 1016.3
20260902065134 68 156 0.0 0.0 0.00 0.00 0.00 99 1016.2
20260902064629 68 153 0.0 0.0 0.00 0.00 0.00 99 1016.2
20260902064125 68 160 0.0 0.0 0.00 0.00 0.00 98 1016.4
20260902063620 68 151 0.0 0.0 0.00 0.00 0.00 99 1016.3
20260902063114 68 162 0.0 0.0 0.00 0.00 0.00 99 1016.5
20260902062613 68 162 0.0 0.0 0.00 0.00 0.00 99 1016.7
20260902062109 68 161 0.0 0.0 0.00 0.00 0.00 99 1016.4
20260902061608 68 151 0.0 0.0 0.00 0.00 0.00 99 1016.7
20260902061104 68 157 0.0 0.0 0.00 0.00 0.00 99 1016.7
20260902060601 68 151 0.0 0.0 0.00 0.00 0.00 99 1016.5
20260902060057 68 153 0.0 0.0 0.00 0.00 0.00 98 1016.7
20260902055552 68 155 0.0 0.0 0.00 0.00 0.00 99 1016.5
20260902055048 69 151 0.0 0.0 0.00 0.00 0.00 99 1016.5
20260902054543 69 151 0.0 0.0 0.00 0.00 0.00 99 1016.6
20260902054038 69 158 0.0 0.0 0.00 0.00 0.00 99 1016.6
20260902053533 69 154 0.0 0.0 0.00 0.00 0.00 99 1016.7
20260902053033 69 161 0.0 0.0 0.00 0.00 0.00 99 1016.5
20260902052527 69 165 0.0 0.0 0.00 0.00 0.00 99 1016.6
20260902052023 69 161 0.0 0.0 0.00 0.00 0.00 99 1016.5
20260902051523 69 158 0.0 0.0 0.00 0.00 0.00 99 1016.5
20260902051021 69 158 0.0 0.0 0.00 0.00 0.00 99 1016.2
20260902050517 69 164 0.0 0.0 0.00 0.00 0.00 99 1016.2
20260902050012 69 156 0.0 0.0 0.00 0.00 0.00 99 1016.3
20260902045507 69 158 0.0 0.0 0.00 0.00 0.00 99 1016.3
20260902045004 69 154 0.0 0.0 0.00 0.00 0.00 99 1016.4
20260902044458 69 154 0.0 0.0 0.00 0.00 0.00 99 1016.4
20260902043954 69 158 0.0 0.0 0.00 0.00 0.00 99 1016.5
20260902043448 69 157 0.0 0.0 0.00 0.00 0.00 99 1016.4
20260902042943 69 157 0.0 0.0 0.00 0.00 0.00 99 1016.6
20260902042443 69 158 0.0 0.0 0.00 0.00 0.00 99 1016.3
20260902041938 69 158 0.0 0.0 0.00 0.00 0.00 99 1016.3
20260902041433 69 160 0.0 0.0 0.00 0.00 0.00 99 1016.3
20260902040932 69 162 0.0 0.0 0.00 0.00 0.00 99 1016.3
20260902040427 69 157 0.0 0.0 0.00 0.00 0.00 98 1016.3
20260902035926 69 156 0.0 0.0 0.00 0.03 0.03 99 1016.2
20260902035421 69 161 0.0 0.0 0.00 0.03 0.03 98 1016.1
20260902034921 69 154 0.0 0.0 0.00 0.03 0.03 98 1016.2
20260902034415 70 155 0.0 0.0 0.00 0.03 0.03 98 1016.2
20260902033914 70 160 0.0 0.0 0.00 0.03 0.03 98 1016.4
20260902033409 70 155 0.0 0.0 0.00 0.03 0.03 98 1016.2
20260902032908 70 150 0.0 0.0 0.00 0.03 0.03 98 1016.5
20260902032402 69 150 0.0 0.0 0.00 0.03 0.03 98 1016.5
20260902031857 69 149 0.0 0.0 0.00 0.03 0.03 98 1016.3
20260902031353 69 150 0.0 0.0 0.00 0.03 0.03 98 1016.2
20260902030849 69 150 0.0 0.0 0.00 0.03 0.03 98 1016.5
20260902030343 69 150 0.0 0.0 0.00 0.03 0.03 98 1016.2
20260902025842 70 150 0.0 0.0 0.00 0.03 0.03 98 1016.2
20260902025338 70 149 0.0 0.0 0.00 0.03 0.03 98 1016.3
20260902024832 70 149 0.0 0.0 0.00 0.03 0.03 98 1016.3
20260902024328 70 149 0.0 0.0 0.00 0.03 0.03 98 1016.3
20260902023823 70 150 0.0 0.0 0.00 0.03 0.03 98 1016.6
20260902023319 70 150 0.0 0.0 0.00 0.03 0.03 98 1016.3
20260902022817 70 150 0.0 0.0 0.00 0.03 0.03 98 1016.4
20260902022313 70 150 0.0 0.0 0.00 0.03 0.03 98 1016.6
20260902021809 70 150 0.0 0.0 0.00 0.03 0.03 98 1016.2
20260902021303 70 150 0.0 0.0 0.00 0.03 0.03 98 1016.2
20260902020759 70 150 0.0 0.0 0.00 0.03 0.03 98 1016.4
20260902020255 70 150 0.0 0.0 0.00 0.03 0.03 98 1016.6
20260902015750 70 150 0.0 0.0 0.00 0.03 0.03 97 1016.3
20260902015247 70 150 0.0 0.0 0.00 0.03 0.03 97 1016.5
20260902014742 70 150 0.0 0.0 0.00 0.03 0.03 97 1016.5
20260902014238 71 150 0.0 0.0 0.00 0.03 0.03 97 1016.4
20260902013736 70 150 0.0 0.0 0.00 0.03 0.03 97 1016.4
20260902013232 71 150 0.0 0.0 0.00 0.03 0.03 97 1016.2
20260902012727 71 150 0.0 0.0 0.00 0.03 0.03 97 1016.2
20260902012223 71 150 0.0 0.0 0.00 0.03 0.03 97 1016.3
20260902011719 71 150 0.0 0.0 0.00 0.03 0.03 97 1016.1
20260902011218 71 150 0.0 0.0 0.00 0.03 0.03 97 1015.9
20260902010718 71 150 0.0 0.0 0.00 0.03 0.03 97 1016.2
20260902010214 71 150 0.0 0.0 0.00 0.03 0.03 97 1015.8
20260902005712 71 150 0.0 0.0 0.00 0.03 0.03 97 1015.9
20260902005208 71 150 0.0 0.0 0.00 0.03 0.03 97 1015.8
20260902004707 71 150 0.0 0.0 0.00 0.03 0.03 97 1015.6
20260902004203 71 150 0.0 0.0 0.00 0.03 0.03 97 1015.7
20260902003658 71 150 0.0 0.0 0.00 0.03 0.03 96 1015.4
20260902003153 71 150 0.0 0.0 0.00 0.03 0.03 96 1015.3
20260902002648 71 150 0.0 0.0 0.00 0.03 0.03 96 1015.1
20260902002143 72 150 0.0 0.0 0.00 0.03 0.03 96 1015.2
20260902001638 72 150 0.0 0.0 0.00 0.03 0.03 96 1015.0
20260902001138 72 150 0.0 0.0 0.00 0.03 0.03 96 1015.0
20260902000633 72 150 0.0 0.0 0.00 0.03 0.03 96 1014.9
20260902000128 72 150 0.0 0.0 0.00 0.03 0.03 95 1014.7
20260901235628 72 150 0.0 0.0 0.00 0.03 0.03 95 1014.8
20260901235123 73 150 0.0 0.0 0.00 0.03 0.03 95 1014.9
20260901234622 73 150 0.0 0.0 0.00 0.03 0.03 95 1014.8
20260901234118 73 150 0.0 0.0 0.00 0.03 0.03 94 1014.9
20260901233613 73 150 0.0 0.0 0.00 0.03 0.03 94 1014.9
20260901233109 73 150 0.0 0.0 0.00 0.03 0.03 94 1015.1
20260901232603 73 150 0.0 0.0 0.00 0.03 0.03 93 1015.1
20260901232103 73 149 0.0 0.0 0.00 0.03 0.03 93 1015.1
20260901231601 74 142 0.0 0.0 0.00 0.03 0.03 92 1015.1
20260901231056 74 159 0.0 0.0 0.00 0.03 0.03 91 1015.2
20260901230552 74 159 0.0 0.0 0.00 0.03 0.03 91 1015.0
20260901230052 75 159 0.0 0.0 0.00 0.03 0.03 90 1015.2
20260901225547 75 159 0.0 0.0 0.00 0.03 0.03 89 1015.2
20260901225046 75 159 0.0 0.0 0.00 0.03 0.03 89 1015.1
20260901224542 75 161 0.0 0.0 0.00 0.03 0.03 88 1015.3
20260901224038 75 157 0.0 0.0 0.00 0.03 0.03 88 1015.2
20260901223534 76 159 0.0 0.0 0.00 0.03 0.03 88 1015.3
20260901223029 76 163 0.0 0.0 0.00 0.03 0.03 87 1015.3
20260901222525 76 164 0.0 0.0 0.00 0.03 0.03 87 1015.1
20260901222020 76 160 0.0 0.0 0.00 0.03 0.03 87 1015.3
20260901221517 77 159 0.0 0.0 0.00 0.03 0.03 86 1015.2
20260901221011 77 178 0.0 0.0 0.00 0.03 0.03 86 1015.2
20260901220506 77 180 0.0 0.0 0.00 0.03 0.03 86 1015.0
20260901220004 77 171 0.0 0.0 0.00 0.03 0.03 86 1015.2
20260901215503 77 162 0.0 0.0 0.00 0.03 0.03 87 1014.8
20260901215003 77 163 0.0 0.0 0.00 0.03 0.03 87 1015.0
20260901214501 77 170 0.0 0.0 0.00 0.03 0.03 88 1014.9
20260901213955 77 160 0.0 0.0 0.00 0.03 0.03 87 1014.9
20260901213450 77 176 0.0 1.0 0.00 0.03 0.03 87 1014.9
20260901212949 77 154 0.0 0.0 0.00 0.03 0.03 87 1015.0
20260901212445 77 164 0.0 0.0 0.00 0.03 0.03 88 1014.8
20260901211942 77 163 0.0 0.0 0.00 0.03 0.03 87 1014.9
20260901211437 77 146 0.0 0.0 0.00 0.03 0.03 88 1014.9
20260901210933 77 163 0.0 0.0 0.00 0.03 0.03 88 1014.7
20260901210428 77 160 0.0 0.0 0.00 0.03 0.03 88 1015.0
20260901205924 77 158 0.0 0.0 0.00 0.03 0.03 89 1015.1
20260901205419 77 157 0.0 0.0 0.00 0.03 0.03 89 1015.2
20260901204914 77 144 0.0 0.0 0.00 0.03 0.03 90 1015.3
20260901204410 77 150 0.0 0.0 0.00 0.03 0.03 90 1015.2
20260901203910 76 155 0.0 0.0 0.00 0.03 0.03 90 1015.1
20260901203404 77 145 0.0 0.0 0.00 0.03 0.03 90 1015.2
20260901202859 77 159 0.0 0.0 0.00 0.03 0.03 90 1014.9
20260901202354 76 164 0.0 0.0 0.00 0.03 0.03 90 1015.2
20260901201851 76 157 0.0 0.0 0.00 0.03 0.03 90 1015.2
20260901201350 76 148 0.0 0.0 0.00 0.03 0.03 91 1015.2
20260901200844 76 150 0.0 0.0 0.00 0.03 0.03 91 1015.1
20260901200340 76 151 0.0 0.0 0.00 0.03 0.03 91 1015.1
20260901195838 76 150 0.0 0.0 0.00 0.03 0.03 91 1014.8
20260901195337 76 140 0.0 0.0 0.00 0.03 0.03 91 1014.9
20260901194832 76 145 0.0 0.0 0.00 0.03 0.03 91 1015.1
20260901194327 76 153 0.0 0.0 0.00 0.03 0.03 90 1014.9
20260901193824 76 153 0.0 0.0 0.00 0.03 0.03 91 1015.0
20260901193322 76 148 0.0 0.0 0.00 0.03 0.03 91 1014.9
20260901192816 75 151 0.0 0.0 0.00 0.03 0.03 92 1015.0
20260901192312 75 147 0.0 0.0 0.00 0.03 0.03 92 1014.9
20260901191808 75 153 0.0 0.0 0.00 0.03 0.03 92 1014.9
20260901191304 75 142 0.0 0.0 0.00 0.03 0.03 92 1014.7
20260901190759 75 152 0.0 0.0 0.00 0.03 0.03 92 1015.0
20260901190254 76 170 0.0 0.0 0.00 0.03 0.03 92 1015.1
20260901185752 76 132 0.0 0.0 0.00 0.03 0.03 92 1014.8
20260901185251 76 157 0.0 0.0 0.00 0.03 0.03 92 1015.0
20260901184747 76 151 0.0 0.0 0.00 0.03 0.03 92 1015.0
20260901184241 76 142 0.0 0.0 0.00 0.03 0.03 92 1014.9
20260901183738 76 144 0.0 0.0 0.00 0.03 0.03 91 1014.8
20260901183237 76 147 0.0 0.0 0.00 0.03 0.03 90 1014.8
20260901182733 76 147 0.0 0.0 0.00 0.03 0.03 91 1014.8
20260901182232 76 152 0.0 0.0 0.00 0.03 0.03 91 1014.8
20260901181727 76 149 0.0 0.0 0.00 0.03 0.03 90 1014.7
20260901181222 75 163 0.0 0.0 0.00 0.03 0.03 89 1014.5
20260901180721 75 160 0.0 0.0 0.00 0.03 0.03 90 1014.4
20260901180220 76 150 0.0 0.0 0.00 0.03 0.03 91 1014.3
20260901175719 76 149 0.0 0.0 0.00 0.03 0.03 90 1014.2
20260901175214 77 153 0.0 0.0 0.00 0.03 0.03 90 1014.3
20260901174709 77 153 0.0 0.0 0.00 0.03 0.03 87 1014.3
20260901174205 77 162 0.0 0.0 0.00 0.03 0.03 85 1014.3
20260901173701 77 145 0.0 0.0 0.00 0.03 0.03 86 1014.3
20260901173156 77 159 0.0 0.0 0.00 0.03 0.03 86 1014.2
20260901172651 77 163 0.0 0.0 0.00 0.03 0.03 85 1014.3
20260901172144 77 162 0.0 0.0 0.00 0.03 0.03 86 1014.3
20260901171644 77 159 0.0 0.0 0.00 0.03 0.03 86 1014.2
20260901171143 77 171 0.0 0.0 0.00 0.03 0.03 86 1014.1